Iron Mountain, MI

2:10 PM CDT on September 22, 2017 (GMT -0500)
Ford

Weather History for KIMT - June, 2011

Change the Weather History Date:

Sunday, June 19, 2011

  Actual Average Record
Temperature  
Mean Temperature 60 °F -  
Max Temperature 64 °F 75 °F 94 °F (1933)
Min Temperature 55 °F 49 °F 37 °F (2015)
Degree Days  
Heating Degree Days 6    
Growing Degree Days 10 (Base 50)    
Moisture  
Dew Point 53 °F    
Average Humidity 82    
Maximum Humidity 100    
Minimum Humidity 59    
Precipitation  
Precipitation 0.02 in - - ()
Sea Level Pressure  
Sea Level Pressure 29.87 in    
Wind  
Wind Speed 5 mph (East)    
Max Wind Speed 13 mph    
Max Gust Speed 17 mph    
Visibility 10 miles    
Events Rain    
Averages and records for this station are not official NWS values.
T = Trace of Precipitation, MM = Missing Value Source: NWS Daily Summary

Daily Weather History Graph

Daily Weather History Graph

Search for Another Location

Airport or City:

Trip Planner

Search our weather history database for the weather conditions in past years. The results will help you decide how hot, cold, wet, or windy it might be!

Date:

Astronomy

Jun. 19, 2011 Rise Set
Actual Time 5:01 AM CDT 8:45 PM CDT
Civil Twilight 4:23 AM CDT 9:24 PM CDT
Nautical Twilight 3:31 AM CDT 10:15 PM CDT
Astronomical Twilight 2:20 AM CDT 11:27 PM CDT
Moon 11:12 PM CDT (6/19) 9:10 AM CDT (6/19)
Length of Visible Light 17h 00m
Length of Day
15h 43m
Waning Gibbous, 84% of the Moon is Illuminated
Jun 19
Waning Gibbous
Jun 23
Last Quarter
Jul 1
New
Jul 8
First Quarter
Jul 15
Full

Hourly Weather History & Observations

Time (CDT) Temp. Dew Point Humidity Pressure Visibility Wind Dir Wind Speed Gust Speed Precip Events Conditions
12:54 AM 57.9 °F 55.9 °F 93% 29.91 in 10.0 mi NE 4.6 mph - 0.00 in Rain Light Rain
1:54 AM 57.9 °F 54.0 °F 87% 29.90 in 10.0 mi ENE 5.8 mph - 0.00 in Rain Light Rain
2:54 AM 59.0 °F 54.0 °F 83% 29.89 in 10.0 mi ESE 3.5 mph - 0.00 in Rain Light Rain
3:54 AM 57.9 °F 55.0 °F 90% 29.87 in 10.0 mi SE 8.1 mph - 0.00 in   Overcast
4:54 AM 57.9 °F 55.9 °F 93% 29.86 in 10.0 mi ESE 6.9 mph - N/A   Mostly Cloudy
5:25 AM 57.2 °F 57.2 °F 100% 29.87 in 10.0 mi SE 3.5 mph - N/A   Mostly Cloudy
5:38 AM 57.2 °F 57.2 °F 100% 29.87 in 10.0 mi East 4.6 mph - N/A   Overcast
5:50 AM 57.2 °F 57.2 °F 100% 29.87 in 10.0 mi SE 4.6 mph - 0.00 in Rain Light Rain
5:54 AM 57.9 °F 55.9 °F 93% 29.87 in 10.0 mi Variable 6.9 mph - 0.00 in Rain Light Rain
6:54 AM 57.9 °F 55.0 °F 90% 29.89 in 10.0 mi Calm Calm - N/A   Overcast
7:54 AM 60.1 °F 54.0 °F 80% 29.88 in 10.0 mi Variable 3.5 mph - 0.00 in   Scattered Clouds
8:54 AM 62.1 °F 52.0 °F 70% 29.86 in 10.0 mi East 8.1 mph - N/A   Clear
9:54 AM 63.0 °F 52.0 °F 67% 29.85 in 10.0 mi East 8.1 mph - N/A   Partly Cloudy
10:54 AM 64.0 °F 50.0 °F 60% 29.86 in 10.0 mi East 12.7 mph 17.3 mph N/A   Partly Cloudy
11:50 AM 62.6 °F 48.2 °F 59% 29.87 in 10.0 mi SE 5.8 mph - N/A   Mostly Cloudy
11:54 AM 62.1 °F 50.0 °F 65% 29.88 in 10.0 mi SE 9.2 mph - N/A   Mostly Cloudy
12:49 PM 60.8 °F 55.4 °F 82% 29.86 in 10.0 mi Calm Calm - 0.00 in Rain Light Rain
12:54 PM 60.1 °F 54.0 °F 80% 29.88 in 10.0 mi Calm Calm - 0.00 in Rain Light Rain
1:54 PM 60.1 °F 51.1 °F 72% 29.88 in 10.0 mi East 3.5 mph - 0.00 in   Clear
2:26 PM 57.2 °F 51.8 °F 82% 29.87 in 8.0 mi East 6.9 mph - 0.01 in Rain Light Rain
2:42 PM 57.2 °F 53.6 °F 88% 29.86 in 10.0 mi East 6.9 mph - 0.01 in Rain Light Rain
2:50 PM 59.0 °F 53.6 °F 82% 29.86 in 9.0 mi East 6.9 mph - 0.02 in Rain Light Rain
2:54 PM 59.0 °F 54.0 °F 83% 29.86 in 9.0 mi East 4.6 mph - 0.02 in Rain Light Rain
3:10 PM 59.0 °F 53.6 °F 82% 29.85 in 10.0 mi ENE 8.1 mph - 0.00 in Rain Light Rain
3:54 PM 60.1 °F 55.0 °F 83% 29.85 in 10.0 mi ENE 3.5 mph - 0.00 in   Clear
4:54 PM 60.1 °F 54.0 °F 80% 29.86 in 10.0 mi Variable 5.8 mph - 0.00 in   Scattered Clouds
5:54 PM 60.1 °F 54.0 °F 80% 29.85 in 10.0 mi East 5.8 mph - 0.00 in   Scattered Clouds
6:54 PM 59.0 °F 53.1 °F 81% 29.85 in 10.0 mi East 4.6 mph - 0.00 in   Overcast
7:54 PM 59.0 °F 54.0 °F 83% 29.86 in 10.0 mi NNE 3.5 mph - 0.00 in Rain Light Rain
9:54 PM 55.9 °F 51.1 °F 84% 29.87 in 8.0 mi ENE 5.8 mph - 0.00 in Rain Light Rain
10:54 PM 55.0 °F 51.1 °F 86% 29.86 in 10.0 mi NE 4.6 mph - 0.00 in   Overcast
11:31 PM 55.4 °F 50.0 °F 82% 29.85 in 10.0 mi Variable 4.6 mph - N/A   Overcast
11:54 PM 55.9 °F 50.0 °F 80% 29.85 in 10.0 mi Variable 4.6 mph - N/A   Overcast